Location: Ferchesar
(52.6477°N, 12.4298°E)
Time: 10:12:35
(UTC+01:00)

Tiros 1 despin weight - Pass Details

Date: 13 December 2021
Orbit: 592 x 641 km, 48.2° (Epoch: 19 January)

Event Time Altitude Azimuth Distance (km) Brightness Sun altitude
Rises 13:43:56 0° 271° (W) 2,847 ? 11.1°
Reaches altitude 10° 13:46:21 10° 263° (W) 1,936 ? 11.0°
Maximum altitude 13:50:27 38° 196° (SSW) 911 ? 10.7°
Drops below altitude 10° 13:54:32 10° 128° (SE) 1,920 ? 10.5°
Sets 13:56:54 0° 120° (ESE) 2,818 ? 10.3°
